Year,Month,Day,Hour,Minute,Value (Times are PST for temperature in C)
2011,08,09,00,00,12.20
2011,08,09,00,01,12.20
2011,08,09,00,02,12.10
2011,08,09,00,03,12.10
2011,08,09,00,04,12.10
2011,08,09,00,05,12.10
2011,08,09,00,06,12.10
2011,08,09,00,07,12.00
2011,08,09,00,08,12.00
2011,08,09,00,09,12.00
2011,08,09,00,10,12.00
2011,08,09,00,11,11.90
2011,08,09,00,12,11.90
2011,08,09,00,13,11.90
2011,08,09,00,14,11.90
2011,08,09,00,15,11.90
2011,08,09,00,16,11.90
2011,08,09,00,17,11.90
2011,08,09,00,18,11.80
2011,08,09,00,19,11.80
2011,08,09,00,20,11.80
2011,08,09,00,21,11.80
2011,08,09,00,22,11.80
2011,08,09,00,23,11.80
2011,08,09,00,24,11.80
2011,08,09,00,25,11.80
2011,08,09,00,26,11.70
2011,08,09,00,27,11.70
2011,08,09,00,28,11.70
2011,08,09,00,29,11.70
2011,08,09,00,30,11.70
2011,08,09,00,31,11.70
2011,08,09,00,32,11.70
2011,08,09,00,33,11.60
2011,08,09,00,34,11.60
2011,08,09,00,35,11.60
2011,08,09,00,36,11.60
2011,08,09,00,37,11.60
2011,08,09,00,38,11.60
2011,08,09,00,39,11.60
2011,08,09,00,40,11.60
2011,08,09,00,41,11.50
2011,08,09,00,42,11.50
2011,08,09,00,43,11.50
2011,08,09,00,44,11.50
2011,08,09,00,45,11.50
2011,08,09,00,46,11.50
2011,08,09,00,47,11.50
2011,08,09,00,48,11.40
2011,08,09,00,49,11.40
2011,08,09,00,50,11.40
2011,08,09,00,51,11.40
2011,08,09,00,52,11.40
2011,08,09,00,53,11.40
2011,08,09,00,54,11.40
2011,08,09,00,55,11.40
2011,08,09,00,56,11.40
2011,08,09,00,57,11.40
2011,08,09,00,58,11.30
2011,08,09,00,59,11.30
2011,08,09,01,00,11.30
2011,08,09,01,01,11.30
2011,08,09,01,02,11.30
2011,08,09,01,03,11.30
2011,08,09,01,04,11.30
2011,08,09,01,05,11.30
2011,08,09,01,06,11.30
2011,08,09,01,07,11.20
2011,08,09,01,08,11.20
2011,08,09,01,09,11.20
2011,08,09,01,10,11.20
2011,08,09,01,11,11.20
2011,08,09,01,12,11.20
2011,08,09,01,13,11.20
2011,08,09,01,14,11.20
2011,08,09,01,15,11.20
2011,08,09,01,16,11.20
2011,08,09,01,17,11.20
2011,08,09,01,18,11.10
2011,08,09,01,19,11.10
2011,08,09,01,20,11.10
2011,08,09,01,21,11.10
2011,08,09,01,22,11.10
2011,08,09,01,23,11.10
2011,08,09,01,24,11.10
2011,08,09,01,25,11.10
2011,08,09,01,26,11.10
2011,08,09,01,27,11.10
2011,08,09,01,28,11.00
2011,08,09,01,29,11.00
2011,08,09,01,30,11.00
2011,08,09,01,31,11.00
2011,08,09,01,32,11.00
2011,08,09,01,33,10.90
2011,08,09,01,34,10.90
2011,08,09,01,35,10.90
2011,08,09,01,36,10.90
2011,08,09,01,37,10.90
2011,08,09,01,38,10.90
2011,08,09,01,39,10.90
2011,08,09,01,40,10.90
2011,08,09,01,41,10.90
2011,08,09,01,42,10.90
2011,08,09,01,43,10.80
2011,08,09,01,44,10.80
2011,08,09,01,45,10.80
2011,08,09,01,46,10.80
2011,08,09,01,47,10.80
2011,08,09,01,48,10.80
2011,08,09,01,49,10.80
2011,08,09,01,50,10.80
2011,08,09,01,51,10.80
2011,08,09,01,52,10.80
2011,08,09,01,53,10.80
2011,08,09,01,54,10.80
2011,08,09,01,55,10.80
2011,08,09,01,56,10.70
2011,08,09,01,57,10.70
2011,08,09,01,58,10.70
2011,08,09,01,59,10.70
2011,08,09,02,00,10.70
2011,08,09,02,01,10.70
2011,08,09,02,02,10.70
2011,08,09,02,03,10.60
2011,08,09,02,04,10.60
2011,08,09,02,05,10.60
2011,08,09,02,06,10.60
2011,08,09,02,07,10.60
2011,08,09,02,08,10.60
2011,08,09,02,09,10.60
2011,08,09,02,10,10.50
2011,08,09,02,11,10.50
2011,08,09,02,12,10.50
2011,08,09,02,13,10.50
2011,08,09,02,14,10.50
2011,08,09,02,15,10.50
2011,08,09,02,16,10.50
2011,08,09,02,17,10.40
2011,08,09,02,18,10.40
2011,08,09,02,19,10.40
2011,08,09,02,20,10.40
2011,08,09,02,21,10.40
2011,08,09,02,22,10.40
2011,08,09,02,23,10.40
2011,08,09,02,24,10.40
2011,08,09,02,25,10.30
2011,08,09,02,26,10.30
2011,08,09,02,27,10.30
2011,08,09,02,28,10.30
2011,08,09,02,29,10.30
2011,08,09,02,30,10.30
2011,08,09,02,31,10.30
2011,08,09,02,32,10.30
2011,08,09,02,33,10.30
2011,08,09,02,34,10.20
2011,08,09,02,35,10.20
2011,08,09,02,36,10.20
2011,08,09,02,37,10.20
2011,08,09,02,38,10.20
2011,08,09,02,39,10.20
2011,08,09,02,40,10.20
2011,08,09,02,41,10.20
2011,08,09,02,42,10.20
2011,08,09,02,43,10.20
2011,08,09,02,44,10.20
2011,08,09,02,45,10.20
2011,08,09,02,46,10.20
2011,08,09,02,47,10.20
2011,08,09,02,48,10.20
2011,08,09,02,49,10.10
2011,08,09,02,50,10.10
2011,08,09,02,51,10.10
2011,08,09,02,52,10.10
2011,08,09,02,53,10.10
2011,08,09,02,54,10.10
2011,08,09,02,55,10.10
2011,08,09,02,56,10.10
2011,08,09,02,57,10.10
2011,08,09,02,58,10.10
2011,08,09,02,59,10.00
2011,08,09,03,00,10.00
2011,08,09,03,01,10.00
2011,08,09,03,02,10.00
2011,08,09,03,03,10.00
2011,08,09,03,04,9.90
2011,08,09,03,05,9.90
2011,08,09,03,06,9.90
2011,08,09,03,07,9.90
2011,08,09,03,08,9.90
2011,08,09,03,09,9.90
2011,08,09,03,10,9.90
2011,08,09,03,11,9.90
2011,08,09,03,12,9.90
2011,08,09,03,13,9.90
2011,08,09,03,14,9.90
2011,08,09,03,15,9.90
2011,08,09,03,16,9.80
2011,08,09,03,17,9.80
2011,08,09,03,18,9.80
2011,08,09,03,19,9.80
2011,08,09,03,20,9.80
2011,08,09,03,21,9.80
2011,08,09,03,22,9.80
2011,08,09,03,23,9.80
2011,08,09,03,24,9.80
2011,08,09,03,25,9.70
2011,08,09,03,26,9.70
2011,08,09,03,27,9.70
2011,08,09,03,28,9.70
2011,08,09,03,29,9.70
2011,08,09,03,30,9.70
2011,08,09,03,31,9.70
2011,08,09,03,32,9.70
2011,08,09,03,33,9.70
2011,08,09,03,34,9.60
2011,08,09,03,35,9.60
2011,08,09,03,36,9.60
2011,08,09,03,37,9.60
2011,08,09,03,38,9.60
2011,08,09,03,39,9.60
2011,08,09,03,40,9.60
2011,08,09,03,41,9.60
2011,08,09,03,42,9.60
2011,08,09,03,43,9.60
2011,08,09,03,44,9.60
2011,08,09,03,45,9.60
2011,08,09,03,46,9.60
2011,08,09,03,47,9.60
2011,08,09,03,48,9.60
2011,08,09,03,49,9.60
2011,08,09,03,50,9.60
2011,08,09,03,51,9.60
2011,08,09,03,52,9.50
2011,08,09,03,53,9.50
2011,08,09,03,54,9.50
2011,08,09,03,55,9.50
2011,08,09,03,56,9.50
2011,08,09,03,57,9.50
2011,08,09,03,58,9.40
2011,08,09,03,59,9.40
2011,08,09,04,00,9.40
2011,08,09,04,01,9.40
2011,08,09,04,02,9.40
2011,08,09,04,03,9.40
2011,08,09,04,04,9.40
2011,08,09,04,05,9.30
2011,08,09,04,06,9.30
2011,08,09,04,07,9.30
2011,08,09,04,08,9.30
2011,08,09,04,09,9.30
2011,08,09,04,10,9.30
2011,08,09,04,11,9.30
2011,08,09,04,12,9.30
2011,08,09,04,13,9.30
2011,08,09,04,14,9.30
2011,08,09,04,15,9.30
2011,08,09,04,16,9.30
2011,08,09,04,17,9.30
2011,08,09,04,18,9.30
2011,08,09,04,19,9.30
2011,08,09,04,20,9.30
2011,08,09,04,21,9.30
2011,08,09,04,22,9.30
2011,08,09,04,23,9.30
2011,08,09,04,24,9.30
2011,08,09,04,25,9.30
2011,08,09,04,26,9.30
2011,08,09,04,27,9.20
2011,08,09,04,28,9.20
2011,08,09,04,29,9.20
2011,08,09,04,30,9.20
2011,08,09,04,31,9.20
2011,08,09,04,32,9.20
2011,08,09,04,33,9.20
2011,08,09,04,34,9.20
2011,08,09,04,35,9.20
2011,08,09,04,36,9.20
2011,08,09,04,37,9.20
2011,08,09,04,38,9.20
2011,08,09,04,39,9.20
2011,08,09,04,40,9.20
2011,08,09,04,41,9.20
2011,08,09,04,42,9.20
2011,08,09,04,43,9.20
2011,08,09,04,44,9.20
2011,08,09,04,45,9.20
2011,08,09,04,46,9.20
2011,08,09,04,47,9.20
2011,08,09,04,48,9.20
2011,08,09,04,49,9.20
2011,08,09,04,50,9.20
2011,08,09,04,51,9.20
2011,08,09,04,52,9.30
2011,08,09,04,53,9.30
2011,08,09,04,54,9.30
2011,08,09,04,55,9.30
2011,08,09,04,56,9.40
2011,08,09,04,57,9.40
2011,08,09,04,58,9.40
2011,08,09,04,59,9.40
2011,08,09,05,00,9.40
2011,08,09,05,01,9.40
2011,08,09,05,02,9.40
2011,08,09,05,03,9.50
2011,08,09,05,04,9.50
2011,08,09,05,05,9.50
2011,08,09,05,06,9.50
2011,08,09,05,07,9.50
2011,08,09,05,08,9.60
2011,08,09,05,09,9.60
2011,08,09,05,10,9.60
2011,08,09,05,11,9.60
2011,08,09,05,12,9.60
2011,08,09,05,13,9.60
2011,08,09,05,14,9.60
2011,08,09,05,15,9.60
2011,08,09,05,16,9.60
2011,08,09,05,17,9.60
2011,08,09,05,18,9.60
2011,08,09,05,19,9.60
2011,08,09,05,20,9.60
2011,08,09,05,21,9.70
2011,08,09,05,22,9.70
2011,08,09,05,23,9.70
2011,08,09,05,24,9.70
2011,08,09,05,25,9.70
2011,08,09,05,26,9.70
2011,08,09,05,27,9.70
2011,08,09,05,28,9.70
2011,08,09,05,29,9.70
2011,08,09,05,30,9.70
2011,08,09,05,31,9.70
2011,08,09,05,32,9.70
2011,08,09,05,33,9.70
2011,08,09,05,34,9.70
2011,08,09,05,35,9.70
2011,08,09,05,36,9.70
2011,08,09,05,37,9.70
2011,08,09,05,38,9.70
2011,08,09,05,39,9.70
2011,08,09,05,40,9.70
2011,08,09,05,41,9.70
2011,08,09,05,42,9.70
2011,08,09,05,43,9.70
2011,08,09,05,44,9.70
2011,08,09,05,45,9.70
2011,08,09,05,46,9.70
2011,08,09,05,47,9.70
2011,08,09,05,48,9.70
2011,08,09,05,49,9.70
2011,08,09,05,50,9.70
2011,08,09,05,51,9.60
2011,08,09,05,52,9.60
2011,08,09,05,53,9.60
2011,08,09,05,54,9.60
2011,08,09,05,55,9.60
2011,08,09,05,56,9.60
2011,08,09,05,57,9.60
2011,08,09,05,58,9.60
2011,08,09,05,59,9.60
2011,08,09,06,00,9.60
2011,08,09,06,01,9.60
2011,08,09,06,02,9.50
2011,08,09,06,03,9.50
2011,08,09,06,04,9.50
2011,08,09,06,05,9.50
2011,08,09,06,06,9.50
2011,08,09,06,07,9.50
2011,08,09,06,08,9.50
2011,08,09,06,09,9.50
2011,08,09,06,10,9.50
2011,08,09,06,11,9.50
2011,08,09,06,12,9.40
2011,08,09,06,13,9.50
2011,08,09,06,14,9.40
2011,08,09,06,15,9.40
2011,08,09,06,16,9.40
2011,08,09,06,17,9.40
2011,08,09,06,18,9.40
2011,08,09,06,19,9.40
2011,08,09,06,20,9.40
2011,08,09,06,21,9.40
2011,08,09,06,22,9.40
2011,08,09,06,23,9.40
2011,08,09,06,24,9.40
2011,08,09,06,25,9.40
2011,08,09,06,26,9.30
2011,08,09,06,27,9.30
2011,08,09,06,28,9.30
2011,08,09,06,29,9.30
2011,08,09,06,30,9.30
2011,08,09,06,31,9.30
2011,08,09,06,32,9.30
2011,08,09,06,33,9.30
2011,08,09,06,34,9.30
2011,08,09,06,35,9.30
2011,08,09,06,36,9.30
2011,08,09,06,37,9.30
2011,08,09,06,38,9.30
2011,08,09,06,39,9.30
2011,08,09,06,40,9.30
2011,08,09,06,41,9.30
2011,08,09,06,42,9.30
2011,08,09,06,43,9.30
2011,08,09,06,44,9.30
2011,08,09,06,45,9.30
2011,08,09,06,46,9.30
2011,08,09,06,47,9.30
2011,08,09,06,48,9.30
2011,08,09,06,49,9.30
2011,08,09,06,50,9.30
2011,08,09,06,51,9.30
2011,08,09,06,52,9.40
2011,08,09,06,53,9.40
2011,08,09,06,54,9.40
2011,08,09,06,55,9.40
2011,08,09,06,56,9.40
2011,08,09,06,57,9.40
2011,08,09,06,58,9.40
2011,08,09,06,59,9.40
2011,08,09,07,00,9.40
2011,08,09,07,01,9.40
2011,08,09,07,02,9.50
2011,08,09,07,03,9.50
2011,08,09,07,04,9.50
2011,08,09,07,05,9.50
2011,08,09,07,06,9.50
2011,08,09,07,07,9.50
2011,08,09,07,08,9.60
2011,08,09,07,09,9.60
2011,08,09,07,10,9.60
2011,08,09,07,11,9.60
2011,08,09,07,12,9.60
2011,08,09,07,13,9.60
2011,08,09,07,14,9.60
2011,08,09,07,15,9.60
2011,08,09,07,16,9.60
2011,08,09,07,17,9.60
2011,08,09,07,18,9.70
2011,08,09,07,19,9.70
2011,08,09,07,20,9.70
2011,08,09,07,21,9.70
2011,08,09,07,22,9.70
2011,08,09,07,23,9.70
2011,08,09,07,24,9.80
2011,08,09,07,25,9.80
2011,08,09,07,26,9.80
2011,08,09,07,27,9.80
2011,08,09,07,28,9.80
2011,08,09,07,29,9.80
2011,08,09,07,30,9.90
2011,08,09,07,31,9.90
2011,08,09,07,32,9.90
2011,08,09,07,33,9.90
2011,08,09,07,34,10.00
2011,08,09,07,35,10.00
2011,08,09,07,36,10.10
2011,08,09,07,37,10.10
2011,08,09,07,38,10.10
2011,08,09,07,39,10.20
2011,08,09,07,40,10.20
2011,08,09,07,41,10.20
2011,08,09,07,42,10.30
2011,08,09,07,43,10.30
2011,08,09,07,44,10.40
2011,08,09,07,45,10.40
2011,08,09,07,46,10.50
2011,08,09,07,47,10.60
2011,08,09,07,48,10.60
2011,08,09,07,49,10.70
2011,08,09,07,50,10.70
2011,08,09,07,51,10.80
2011,08,09,07,52,10.80
2011,08,09,07,53,10.90
2011,08,09,07,54,10.90
2011,08,09,07,55,11.00
2011,08,09,07,56,11.10
2011,08,09,07,57,11.10
2011,08,09,07,58,11.20
2011,08,09,07,59,11.20
2011,08,09,08,00,11.30
2011,08,09,08,01,11.30
2011,08,09,08,02,11.40
2011,08,09,08,03,11.50
2011,08,09,08,04,11.50
2011,08,09,08,05,11.60
2011,08,09,08,06,11.70
2011,08,09,08,07,11.70
2011,08,09,08,08,11.80
2011,08,09,08,09,11.80
2011,08,09,08,10,11.90
2011,08,09,08,11,12.00
2011,08,09,08,12,12.00
2011,08,09,08,13,12.10
2011,08,09,08,14,12.10
2011,08,09,08,15,12.20
2011,08,09,08,16,12.30
2011,08,09,08,17,12.30
2011,08,09,08,18,12.30
2011,08,09,08,19,12.40
2011,08,09,08,20,12.40
2011,08,09,08,21,12.50
2011,08,09,08,22,12.50
2011,08,09,08,23,12.60
2011,08,09,08,24,12.70
2011,08,09,08,25,12.70
2011,08,09,08,26,12.80
2011,08,09,08,27,12.80
2011,08,09,08,28,12.80
2011,08,09,08,29,12.90
2011,08,09,08,30,12.90
2011,08,09,08,31,13.00
2011,08,09,08,32,13.10
2011,08,09,08,33,13.10
2011,08,09,08,34,13.10
2011,08,09,08,35,13.20
2011,08,09,08,36,13.20
2011,08,09,08,37,13.20
2011,08,09,08,38,13.30
2011,08,09,08,39,13.30
2011,08,09,08,40,13.30
2011,08,09,08,41,13.40
2011,08,09,08,42,13.40
2011,08,09,08,43,13.40
2011,08,09,08,44,13.50
2011,08,09,08,45,13.50
2011,08,09,08,46,13.60
2011,08,09,08,47,13.60
2011,08,09,08,48,13.60
2011,08,09,08,49,13.60
2011,08,09,08,50,13.70
2011,08,09,08,51,13.70
2011,08,09,08,52,13.80
2011,08,09,08,53,13.80
2011,08,09,08,54,13.80
2011,08,09,08,55,13.80
2011,08,09,08,56,13.80
2011,08,09,08,57,13.90
2011,08,09,08,58,13.90
2011,08,09,08,59,13.90
2011,08,09,09,00,13.90
2011,08,09,09,01,14.00
2011,08,09,09,02,14.00
2011,08,09,09,03,14.00
2011,08,09,09,04,14.10
2011,08,09,09,05,14.10
2011,08,09,09,06,14.10
2011,08,09,09,07,14.10
2011,08,09,09,08,14.20
2011,08,09,09,09,14.20
2011,08,09,09,10,14.20
2011,08,09,09,11,14.20
2011,08,09,09,12,14.20
2011,08,09,09,13,14.30
2011,08,09,09,14,14.30
2011,08,09,09,15,14.30
2011,08,09,09,16,14.30
2011,08,09,09,17,14.30
2011,08,09,09,18,14.30
2011,08,09,09,19,14.30
2011,08,09,09,20,14.40
2011,08,09,09,21,14.40
2011,08,09,09,22,14.40
2011,08,09,09,23,14.40
2011,08,09,09,24,14.40
2011,08,09,09,25,14.40
2011,08,09,09,26,14.40
2011,08,09,09,27,14.40
2011,08,09,09,28,14.40
2011,08,09,09,29,14.50
2011,08,09,09,30,14.50
2011,08,09,09,31,14.50
2011,08,09,09,32,14.60
2011,08,09,09,33,14.60
2011,08,09,09,34,14.60
2011,08,09,09,35,14.70
2011,08,09,09,36,14.70
2011,08,09,09,37,14.80
2011,08,09,09,38,14.80
2011,08,09,09,39,14.80
2011,08,09,09,40,14.80
2011,08,09,09,41,14.90
2011,08,09,09,42,14.90
2011,08,09,09,43,14.90
2011,08,09,09,44,15.00
2011,08,09,09,45,15.00
2011,08,09,09,46,15.00
2011,08,09,09,47,15.00
2011,08,09,09,48,15.00
2011,08,09,09,49,15.00
2011,08,09,09,50,15.00
2011,08,09,09,51,15.00
2011,08,09,09,52,15.00
2011,08,09,09,53,15.00
2011,08,09,09,54,15.00
2011,08,09,09,55,15.00
2011,08,09,09,56,15.00
2011,08,09,09,57,15.00
2011,08,09,09,58,15.00
2011,08,09,09,59,15.00
2011,08,09,10,00,15.00
2011,08,09,10,01,15.10
2011,08,09,10,02,15.10
2011,08,09,10,03,15.20
2011,08,09,10,04,15.20
2011,08,09,10,05,15.20
2011,08,09,10,06,15.30
2011,08,09,10,07,15.30
2011,08,09,10,08,15.30
2011,08,09,10,09,15.30
2011,08,09,10,10,15.30
2011,08,09,10,11,15.30
2011,08,09,10,12,15.30
2011,08,09,10,13,15.30
2011,08,09,10,14,15.30
2011,08,09,10,15,15.30
2011,08,09,10,16,15.30
2011,08,09,10,17,15.30
2011,08,09,10,18,15.30
2011,08,09,10,19,15.30
2011,08,09,10,20,15.30
2011,08,09,10,21,15.40
2011,08,09,10,22,15.40
2011,08,09,10,23,15.40
2011,08,09,10,24,15.40
2011,08,09,10,25,15.40
2011,08,09,10,26,15.40
2011,08,09,10,27,15.40
2011,08,09,10,28,15.50
2011,08,09,10,29,15.50
2011,08,09,10,30,15.50
2011,08,09,10,31,15.50
2011,08,09,10,32,15.40
2011,08,09,10,33,15.40
2011,08,09,10,34,15.50
2011,08,09,10,35,15.50
2011,08,09,10,36,15.50
2011,08,09,10,37,15.50
2011,08,09,10,38,15.60
2011,08,09,10,39,15.60
2011,08,09,10,40,15.60
2011,08,09,10,41,15.60
2011,08,09,10,42,15.60
2011,08,09,10,43,15.70
2011,08,09,10,44,15.70
2011,08,09,10,45,15.70
2011,08,09,10,46,15.70
2011,08,09,10,47,15.70
2011,08,09,10,48,15.70
2011,08,09,10,49,15.70
2011,08,09,10,50,15.70
2011,08,09,10,51,15.70
2011,08,09,10,52,15.70
2011,08,09,10,53,15.70
2011,08,09,10,54,15.70
2011,08,09,10,55,15.70
2011,08,09,10,56,15.70
2011,08,09,10,57,15.70
2011,08,09,10,58,15.70
2011,08,09,10,59,15.70
2011,08,09,11,00,15.70
2011,08,09,11,01,15.70
2011,08,09,11,02,15.70
2011,08,09,11,03,15.70
2011,08,09,11,04,15.70
2011,08,09,11,05,15.80
2011,08,09,11,06,15.80
2011,08,09,11,07,15.80
2011,08,09,11,08,15.80
2011,08,09,11,09,15.80
2011,08,09,11,10,15.80
2011,08,09,11,11,15.90
2011,08,09,11,12,15.90
2011,08,09,11,13,15.90
2011,08,09,11,14,15.90
2011,08,09,11,15,16.00
2011,08,09,11,16,16.00
2011,08,09,11,17,16.10
2011,08,09,11,18,16.10
2011,08,09,11,19,16.20
2011,08,09,11,20,16.20
2011,08,09,11,21,16.30
2011,08,09,11,22,16.30
2011,08,09,11,23,16.30
2011,08,09,11,24,16.30
2011,08,09,11,25,16.30
2011,08,09,11,26,16.30
2011,08,09,11,27,16.30
2011,08,09,11,28,16.30
2011,08,09,11,29,16.30
2011,08,09,11,30,16.30
2011,08,09,11,31,16.30
2011,08,09,11,32,16.30
2011,08,09,11,33,16.30
2011,08,09,11,34,16.30
2011,08,09,11,35,16.40
2011,08,09,11,36,16.40
2011,08,09,11,37,16.50
2011,08,09,11,38,16.50
2011,08,09,11,39,16.60
2011,08,09,11,40,16.60
2011,08,09,11,41,16.60
2011,08,09,11,42,16.60
2011,08,09,11,43,16.60
2011,08,09,11,44,16.60
2011,08,09,11,45,16.70
2011,08,09,11,46,16.70
2011,08,09,11,47,16.70
2011,08,09,11,48,16.80
2011,08,09,11,49,16.80
2011,08,09,11,50,16.80
2011,08,09,11,51,16.80
2011,08,09,11,52,16.90
2011,08,09,11,53,16.90
2011,08,09,11,54,16.90
2011,08,09,11,55,16.90
2011,08,09,11,56,16.90
2011,08,09,11,57,17.00
2011,08,09,11,58,17.00
2011,08,09,11,59,17.10
2011,08,09,12,00,17.10
2011,08,09,12,01,17.10
2011,08,09,12,02,17.20
2011,08,09,12,03,17.20
2011,08,09,12,04,17.20
2011,08,09,12,05,17.10
2011,08,09,12,06,17.10
2011,08,09,12,07,17.10
2011,08,09,12,08,17.10
2011,08,09,12,09,17.10
2011,08,09,12,10,17.10
2011,08,09,12,11,17.10
2011,08,09,12,12,17.10
2011,08,09,12,13,17.20
2011,08,09,12,14,17.30
2011,08,09,12,15,17.30
2011,08,09,12,16,17.40
2011,08,09,12,17,17.50
2011,08,09,12,18,17.50
2011,08,09,12,19,17.60
2011,08,09,12,20,17.70
2011,08,09,12,21,17.70
2011,08,09,12,22,17.70
2011,08,09,12,23,17.70
2011,08,09,12,24,17.70
2011,08,09,12,25,17.70
2011,08,09,12,26,17.80
2011,08,09,12,27,17.80
2011,08,09,12,28,17.90
2011,08,09,12,29,18.00
2011,08,09,12,30,18.00
2011,08,09,12,31,18.10
2011,08,09,12,32,18.10
2011,08,09,12,33,18.20
2011,08,09,12,34,18.20
2011,08,09,12,35,18.20
2011,08,09,12,36,18.20
2011,08,09,12,37,18.20
2011,08,09,12,38,18.20
2011,08,09,12,39,18.10
2011,08,09,12,40,18.10
2011,08,09,12,41,18.10
2011,08,09,12,42,18.10
2011,08,09,12,43,18.10
2011,08,09,12,44,18.20
2011,08,09,12,45,18.10
2011,08,09,12,46,18.10
2011,08,09,12,47,18.10
2011,08,09,12,48,18.10
2011,08,09,12,49,18.10
2011,08,09,12,50,18.10
2011,08,09,12,51,18.10
2011,08,09,12,52,18.10
2011,08,09,12,53,18.10
2011,08,09,12,54,18.20
2011,08,09,12,55,18.20
2011,08,09,12,56,18.20
2011,08,09,12,57,18.30
2011,08,09,12,58,18.30
2011,08,09,12,59,18.40
2011,08,09,13,00,18.50
2011,08,09,13,01,18.60
2011,08,09,13,02,18.60
2011,08,09,13,03,18.70
2011,08,09,13,04,18.70
2011,08,09,13,05,18.80
2011,08,09,13,06,18.80
2011,08,09,13,07,18.80
2011,08,09,13,08,18.80
2011,08,09,13,09,18.80
2011,08,09,13,10,18.80
2011,08,09,13,11,18.80
2011,08,09,13,12,18.80
2011,08,09,13,13,18.80
2011,08,09,13,14,18.80
2011,08,09,13,15,18.90
2011,08,09,13,16,18.90
2011,08,09,13,17,18.90
2011,08,09,13,18,18.90
2011,08,09,13,19,18.90
2011,08,09,13,20,18.90
2011,08,09,13,21,19.00
2011,08,09,13,22,19.10
2011,08,09,13,23,19.10
2011,08,09,13,24,19.20
2011,08,09,13,25,19.20
2011,08,09,13,26,19.30
2011,08,09,13,27,19.30
2011,08,09,13,28,19.30
2011,08,09,13,29,19.30
2011,08,09,13,30,19.30
2011,08,09,13,31,19.30
2011,08,09,13,32,19.20
2011,08,09,13,33,19.20
2011,08,09,13,34,19.20
2011,08,09,13,35,19.10
2011,08,09,13,36,19.10
2011,08,09,13,37,19.10
2011,08,09,13,38,19.10
2011,08,09,13,39,19.20
2011,08,09,13,40,19.20
2011,08,09,13,41,19.20
2011,08,09,13,42,19.20
2011,08,09,13,43,19.20
2011,08,09,13,44,19.20
2011,08,09,13,45,19.20
2011,08,09,13,46,19.20
2011,08,09,13,47,19.30
2011,08,09,13,48,19.30
2011,08,09,13,49,19.20
2011,08,09,13,50,19.20
2011,08,09,13,51,19.20
2011,08,09,13,52,19.20
2011,08,09,13,53,19.20
2011,08,09,13,54,19.20
2011,08,09,13,55,19.20
2011,08,09,13,56,19.20
2011,08,09,13,57,19.20
2011,08,09,13,58,19.30
2011,08,09,13,59,19.40
2011,08,09,14,00,19.40
2011,08,09,14,01,19.50
2011,08,09,14,02,19.50
2011,08,09,14,03,19.50
2011,08,09,14,04,19.40
2011,08,09,14,05,19.30
2011,08,09,14,06,19.20
2011,08,09,14,07,19.20
2011,08,09,14,08,19.10
2011,08,09,14,09,19.10
2011,08,09,14,10,19.10
2011,08,09,14,11,19.10
2011,08,09,14,12,19.10
2011,08,09,14,13,19.20
2011,08,09,14,14,19.20
2011,08,09,14,15,19.20
2011,08,09,14,16,19.20
2011,08,09,14,17,19.10
2011,08,09,14,18,19.00
2011,08,09,14,19,19.00
2011,08,09,14,20,19.00
2011,08,09,14,21,19.00
2011,08,09,14,22,19.00
2011,08,09,14,23,19.00
2011,08,09,14,24,19.10
2011,08,09,14,25,19.10
2011,08,09,14,26,19.10
2011,08,09,14,27,19.20
2011,08,09,14,28,19.20
2011,08,09,14,29,19.20
2011,08,09,14,30,19.20
2011,08,09,14,31,19.30
2011,08,09,14,32,19.30
2011,08,09,14,33,19.40
2011,08,09,14,34,19.50
2011,08,09,14,35,19.50
2011,08,09,14,36,19.60
2011,08,09,14,37,19.60
2011,08,09,14,38,19.60
2011,08,09,14,39,19.70
2011,08,09,14,40,19.70
2011,08,09,14,41,19.70
2011,08,09,14,42,19.70
2011,08,09,14,43,19.60
2011,08,09,14,44,19.60
2011,08,09,14,45,19.60
2011,08,09,14,46,19.60
2011,08,09,14,47,19.50
2011,08,09,14,48,19.50
2011,08,09,14,49,19.60
2011,08,09,14,50,19.60
2011,08,09,14,51,19.60
2011,08,09,14,52,19.70
2011,08,09,14,53,19.70
2011,08,09,14,54,19.80
2011,08,09,14,55,19.90
2011,08,09,14,56,20.00
2011,08,09,14,57,20.00
2011,08,09,14,58,20.10
2011,08,09,14,59,20.10
2011,08,09,15,00,20.10
2011,08,09,15,01,20.10
2011,08,09,15,02,20.10
2011,08,09,15,03,20.10
2011,08,09,15,04,20.00
2011,08,09,15,05,19.90
2011,08,09,15,06,19.90
2011,08,09,15,07,19.90
2011,08,09,15,08,19.80
2011,08,09,15,09,19.80
2011,08,09,15,10,19.80
2011,08,09,15,11,19.80
2011,08,09,15,12,19.80
2011,08,09,15,13,19.80
2011,08,09,15,14,19.80
2011,08,09,15,15,19.80
2011,08,09,15,16,19.80
2011,08,09,15,17,19.90
2011,08,09,15,18,19.90
2011,08,09,15,19,20.00
2011,08,09,15,20,20.00
2011,08,09,15,21,20.10
2011,08,09,15,22,20.10
2011,08,09,15,23,20.10
2011,08,09,15,24,20.20
2011,08,09,15,25,20.20
2011,08,09,15,26,20.20
2011,08,09,15,27,20.30
2011,08,09,15,28,20.20
2011,08,09,15,29,20.20
2011,08,09,15,30,20.20
2011,08,09,15,31,20.20
2011,08,09,15,32,20.20
2011,08,09,15,33,20.20
2011,08,09,15,34,20.30
2011,08,09,15,35,20.30
2011,08,09,15,36,20.30
2011,08,09,15,37,20.20
2011,08,09,15,38,20.10
2011,08,09,15,39,20.10
2011,08,09,15,40,20.10
2011,08,09,15,41,20.00
2011,08,09,15,42,20.00
2011,08,09,15,43,19.90
2011,08,09,15,44,19.90
2011,08,09,15,45,19.80
2011,08,09,15,46,19.60
2011,08,09,15,47,19.40
2011,08,09,15,48,19.30
2011,08,09,15,49,19.20
2011,08,09,15,50,19.10
2011,08,09,15,51,19.10
2011,08,09,15,52,19.20
2011,08,09,15,53,19.30
2011,08,09,15,54,19.30
2011,08,09,15,55,19.30
2011,08,09,15,56,19.40
2011,08,09,15,57,19.40
2011,08,09,15,58,19.50
2011,08,09,15,59,19.50
2011,08,09,16,00,19.50
2011,08,09,16,01,19.50
2011,08,09,16,02,19.50
2011,08,09,16,03,19.60
2011,08,09,16,04,19.60
2011,08,09,16,05,19.60
2011,08,09,16,06,19.70
2011,08,09,16,07,19.70
2011,08,09,16,08,19.80
2011,08,09,16,09,19.80
2011,08,09,16,10,19.80
2011,08,09,16,11,19.80
2011,08,09,16,12,19.90
2011,08,09,16,13,20.00
2011,08,09,16,14,20.10
2011,08,09,16,15,20.10
2011,08,09,16,16,20.20
2011,08,09,16,17,20.30
2011,08,09,16,18,20.30
2011,08,09,16,19,20.30
2011,08,09,16,20,20.30
2011,08,09,16,21,20.30
2011,08,09,16,22,20.20
2011,08,09,16,23,20.20
2011,08,09,16,24,20.20
2011,08,09,16,25,20.20
2011,08,09,16,26,20.20
2011,08,09,16,27,20.20
2011,08,09,16,28,20.20
2011,08,09,16,29,20.20
2011,08,09,16,30,20.30
2011,08,09,16,31,20.30
2011,08,09,16,32,20.30
2011,08,09,16,33,20.30
2011,08,09,16,34,20.30
2011,08,09,16,35,20.20
2011,08,09,16,36,20.20
2011,08,09,16,37,20.10
2011,08,09,16,38,19.90
2011,08,09,16,39,19.80
2011,08,09,16,40,19.80
2011,08,09,16,41,19.80
2011,08,09,16,42,19.80
2011,08,09,16,43,19.70
2011,08,09,16,44,19.60
2011,08,09,16,45,19.60
2011,08,09,16,46,19.60
2011,08,09,16,47,19.60
2011,08,09,16,48,19.60
2011,08,09,16,49,19.70
2011,08,09,16,50,19.70
2011,08,09,16,51,19.80
2011,08,09,16,52,19.80
2011,08,09,16,53,19.80
2011,08,09,16,54,19.80
2011,08,09,16,55,19.90
2011,08,09,16,56,19.90
2011,08,09,16,57,19.90
2011,08,09,16,58,20.00
2011,08,09,16,59,20.00
2011,08,09,17,00,19.90
2011,08,09,17,01,19.90
2011,08,09,17,02,19.90
2011,08,09,17,03,19.80
2011,08,09,17,04,19.80
2011,08,09,17,05,19.70
2011,08,09,17,06,19.60
2011,08,09,17,07,19.60
2011,08,09,17,08,19.50
2011,08,09,17,09,19.50
2011,08,09,17,10,19.40
2011,08,09,17,11,19.40
2011,08,09,17,12,19.30
2011,08,09,17,13,19.40
2011,08,09,17,14,19.40
2011,08,09,17,15,19.40
2011,08,09,17,16,19.40
2011,08,09,17,17,19.40
2011,08,09,17,18,19.40
2011,08,09,17,19,19.40
2011,08,09,17,20,19.40
2011,08,09,17,21,19.50
2011,08,09,17,22,19.50
2011,08,09,17,23,19.50
2011,08,09,17,24,19.60
2011,08,09,17,25,19.60
2011,08,09,17,26,19.60
2011,08,09,17,27,19.60
2011,08,09,17,28,19.60
2011,08,09,17,29,19.60
2011,08,09,17,30,19.60
2011,08,09,17,31,19.70